GW5122 Weather Reports


time (UTC)temp
C
wind
direction
speed
KPH
gust
KPH
rain 1hr
cm
rain 24hr
cm
rain mn
cm
humidity
%
barometer
mb
20260510045354 12 103 0.0 3.2 0.00 0.00 0.00 82 1008.5
20260510044851 12 346 3.2 3.2 0.00 0.00 0.00 82 1008.6
20260510044348 12 346 3.2 3.2 0.00 0.00 0.00 82 1008.6
20260510043844 12 261 0.0 1.6 0.00 0.00 0.00 82 1008.8
20260510043341 12 228 0.0 3.2 0.00 0.00 0.00 81 1008.6
20260510042839 13 314 1.6 1.6 0.00 0.00 0.00 80 1008.6
20260510042334 12 167 6.4 6.4 0.00 0.00 0.00 80 1008.5
20260510041831 13 288 1.6 3.2 0.00 0.00 0.00 81 1008.6
20260510041328 12 212 3.2 4.8 0.00 0.00 0.00 82 1008.7
20260510040826 13 207 1.6 1.6 0.00 0.00 0.00 81 1008.5
20260510040322 12 236 3.2 4.8 0.00 0.00 0.00 82 1008.5
20260510035818 12 299 0.0 4.8 0.00 0.10 0.10 82 1008.5
20260510035314 12 258 0.0 1.6 0.00 0.10 0.10 82 1008.4
20260510034809 12 264 1.6 1.6 0.00 0.10 0.10 82 1008.1
20260510034307 12 260 0.0 1.6 0.00 0.10 0.10 81 1008.0
20260510033804 12 287 0.0 1.6 0.00 0.10 0.10 82 1008.0
20260510033301 13 214 0.0 1.6 0.00 0.10 0.10 80 1008.0
20260510032757 13 251 1.6 3.2 0.00 0.10 0.10 80 1008.0
20260510032253 12 277 0.0 4.8 0.00 0.10 0.10 81 1007.9
20260510031749 12 215 0.0 0.0 0.00 0.10 0.10 81 1007.9
20260510031245 12 167 3.2 6.4 0.00 0.10 0.10 81 1007.7
20260510030739 13 291 0.0 1.6 0.00 0.10 0.10 81 1007.8
20260510030236 12 149 1.6 3.2 0.00 0.10 0.10 82 1007.8
20260510025733 12 258 0.0 0.0 0.00 0.10 0.10 83 1007.9
20260510025231 11 277 3.2 4.8 0.00 0.10 0.10 84 1007.8
20260510024728 11 99 0.0 1.6 0.00 0.10 0.10 87 1007.7
20260510024224 11 180 0.0 0.0 0.00 0.10 0.10 87 1007.8
20260510023720 11 227 0.0 0.0 0.00 0.10 0.10 87 1007.8
20260510023217 10 311 0.0 1.6 0.00 0.10 0.10 91 1007.8
20260510022714 10 311 0.0 1.6 0.00 0.10 0.10 90 1007.9
20260510022208 11 311 0.0 0.0 0.00 0.10 0.10 88 1007.8
20260510021703 10 310 0.0 1.6 0.00 0.10 0.10 91 1007.9
20260510021201 10 310 1.6 3.2 0.00 0.10 0.10 92 1007.6
20260510020655 10 190 0.0 0.0 0.00 0.10 0.10 91 1007.6
20260510020151 10 269 0.0 0.0 0.00 0.10 0.10 90 1007.4
20260510015647 10 269 0.0 0.0 0.00 0.10 0.10 89 1007.4
20260510015144 10 269 0.0 0.0 0.00 0.10 0.10 91 1007.3
20260510014639 10 269 0.0 0.0 0.00 0.10 0.10 91 1007.2
20260510014137 10 269 0.0 0.0 0.00 0.10 0.10 90 1007.4
20260510013636 10 268 0.0 1.6 0.00 0.10 0.10 89 1007.3
20260510013132 11 268 0.0 1.6 0.00 0.10 0.10 87 1007.1
20260510012632 11 268 0.0 0.0 0.00 0.10 0.10 86 1007.2
20260510012128 11 268 0.0 0.0 0.00 0.10 0.10 85 1007.0
20260510011623 12 268 0.0 0.0 0.00 0.10 0.10 84 1007.0
20260510011119 12 268 0.0 0.0 0.00 0.10 0.10 83 1007.1
20260510010615 12 268 0.0 0.0 0.00 0.10 0.10 82 1007.1
20260510010113 12 268 0.0 1.6 0.00 0.10 0.10 82 1006.9
20260510005608 13 268 0.0 1.6 0.00 0.10 0.10 79 1007.0
20260510005106 13 268 1.6 1.6 0.00 0.10 0.10 77 1007.0
20260510004604 14 268 0.0 6.4 0.00 0.10 0.10 74 1006.7
20260510004102 14 282 0.0 1.6 0.00 0.10 0.10 75 1006.6
20260510003558 15 260 1.6 3.2 0.00 0.10 0.10 73 1006.4
20260510003054 15 288 1.6 1.6 0.00 0.10 0.10 72 1006.5
20260510002554 15 251 4.8 6.4 0.00 0.10 0.10 71 1006.5
20260510002051 15 258 4.8 4.8 0.00 0.10 0.10 72 1006.5
20260510001548 15 119 0.0 4.8 0.00 0.10 0.10 72 1006.5
20260510001047 15 159 0.0 4.8 0.00 0.10 0.10 70 1006.5
20260510000542 15 251 1.6 1.6 0.00 0.10 0.10 70 1006.4
20260510000039 15 191 0.0 3.2 0.00 0.10 0.10 70 1006.6
20260509235535 16 168 1.6 1.6 0.00 0.10 0.10 70 1006.2
20260509235032 16 172 3.2 4.8 0.00 0.10 0.10 68 1006.0
20260509234528 16 142 6.4 9.7 0.00 0.10 0.10 67 1006.1
20260509234026 16 184 1.6 6.4 0.00 0.10 0.10 66 1005.9
20260509233523 17 179 4.8 6.4 0.00 0.10 0.10 64 1006.2
20260509233021 17 190 0.0 3.2 0.00 0.10 0.10 65 1006.0
20260509232517 17 228 0.0 3.2 0.00 0.10 0.10 63 1005.9
20260509232014 17 203 4.8 9.7 0.00 0.10 0.10 62 1006.0
20260509231510 17 265 1.6 9.7 0.00 0.10 0.10 64 1005.9
20260509231008 17 307 6.4 9.7 0.00 0.10 0.10 62 1006.0
20260509230505 17 354 0.0 11.3 0.00 0.10 0.10 64 1006.0
20260509230001 17 262 3.2 6.4 0.00 0.10 0.10 61 1006.4
20260509225457 17 181 3.2 11.3 0.00 0.10 0.10 61 1006.2
20260509224953 17 284 3.2 9.7 0.00 0.10 0.10 61 1006.1
20260509224449 17 244 9.7 12.9 0.00 0.10 0.10 60 1006.2
20260509223946 17 215 3.2 9.7 0.00 0.10 0.10 62 1006.2
20260509223442 17 171 6.4 12.9 0.00 0.10 0.10 64 1006.4
20260509222940 17 203 6.4 12.9 0.00 0.10 0.10 62 1006.2
20260509222435 17 198 3.2 11.3 0.00 0.10 0.10 65 1006.6
20260509221931 17 202 6.4 11.3 0.00 0.10 0.10 63 1006.4
20260509221428 17 261 6.4 11.3 0.00 0.10 0.10 62 1006.2
20260509220924 17 224 9.7 12.9 0.00 0.10 0.10 58 1006.4
20260509220420 17 299 1.6 4.8 0.00 0.10 0.10 64 1006.5
20260509215916 17 263 9.7 12.9 0.00 0.10 0.10 62 1006.6
20260509215412 17 316 0.0 4.8 0.00 0.10 0.10 64 1006.5
20260509214909 17 186 6.4 11.3 0.00 0.10 0.10 63 1006.6
20260509214406 17 256 9.7 20.9 0.00 0.10 0.10 63 1006.4
20260509213904 17 262 1.6 3.2 0.00 0.10 0.10 63 1006.2
20260509213359 17 262 1.6 3.2 0.00 0.10 0.10 63 1006.2
20260509212857 17 202 3.2 16.1 0.00 0.10 0.10 62 1006.2
20260509212354 17 315 8.0 12.9 0.00 0.10 0.10 61 1006.5
20260509211850 17 152 3.2 9.7 0.00 0.10 0.10 62 1006.5
20260509211346 18 173 3.2 9.7 0.00 0.10 0.10 60 1006.5
20260509210842 17 255 3.2 4.8 0.00 0.10 0.10 62 1006.2
20260509210340 17 125 6.4 11.3 0.00 0.10 0.10 62 1006.5
20260509205840 17 148 6.4 14.5 0.00 0.10 0.10 64 1006.2
20260509205334 16 235 4.8 17.7 0.00 0.10 0.10 64 1006.5
20260509204831 17 97 3.2 3.2 0.00 0.10 0.10 63 1006.6
20260509204328 17 97 3.2 3.2 0.00 0.10 0.10 63 1006.6
20260509203824 16 154 4.8 9.7 0.00 0.10 0.10 64 1006.6
20260509203321 16 298 9.7 11.3 0.00 0.10 0.10 65 1006.4
20260509202817 -17 0.0 0.0 0.00 0.10 0.10 1006.4
20260509202314 -17 0.0 0.0 0.00 0.10 0.10 1006.2
20260509201813 17 175 3.2 4.8 0.00 0.10 0.10 62 1006.6
20260509201310 17 175 3.2 4.8 0.00 0.10 0.10 62 1006.5
20260509200806 17 240 6.4 9.7 0.00 0.10 0.10 62 1006.6
20260509200302 17 228 9.7 14.5 0.00 0.10 0.10 64 1006.7
20260509195759 17 260 9.7 12.9 0.00 0.10 0.10 64 1006.6
20260509195254 17 263 4.8 11.3 0.00 0.10 0.10 62 1006.7
20260509194753 17 162 3.2 6.4 0.00 0.10 0.10 61 1006.5
20260509194249 16 273 4.8 14.5 0.00 0.10 0.10 65 1006.6
20260509193747 16 260 3.2 6.4 0.00 0.10 0.10 67 1006.8
20260509193247 16 150 3.2 4.8 0.00 0.10 0.10 66 1006.7
20260509192743 16 266 6.4 9.7 0.00 0.10 0.10 67 1006.6
20260509192243 16 234 3.2 6.4 0.00 0.10 0.10 63 1006.8
20260509191739 16 244 6.4 9.7 0.00 0.10 0.10 65 1006.8
20260509191236 16 255 3.2 4.8 0.00 0.10 0.10 67 1006.8
20260509190732 16 81 4.8 12.9 0.00 0.10 0.10 67 1006.9
20260509190229 16 340 8.0 14.5 0.00 0.10 0.10 68 1006.7
20260509185726 16 305 3.2 12.9 0.00 0.10 0.10 64 1006.7
20260509185223 16 252 3.2 9.7 0.00 0.10 0.10 63 1006.6
20260509184720 16 210 1.6 6.4 0.00 0.10 0.10 63 1006.5
20260509184217 16 256 3.2 9.7 0.00 0.10 0.10 63 1006.4
20260509183713 16 246 3.2 17.7 0.00 0.10 0.10 68 1006.5
20260509183209 16 254 3.2 6.4 0.00 0.10 0.10 61 1006.6
20260509182704 16 258 1.6 9.7 0.00 0.10 0.10 66 1006.6
20260509182202 16 294 3.2 6.4 0.00 0.10 0.10 64 1006.6
20260509181700 16 241 1.6 9.7 0.00 0.10 0.10 63 1006.6
20260509181157 15 219 1.6 4.8 0.00 0.10 0.10 64 1006.5
20260509180654 15 157 4.8 6.4 0.00 0.10 0.10 65 1006.5
20260509180150 15 343 1.6 3.2 0.00 0.10 0.10 67 1006.9
20260509175646 15 262 1.6 1.6 0.00 0.10 0.10 66 1006.7
20260509175143 15 160 3.2 4.8 0.00 0.10 0.10 65 1006.8
20260509174639 15 273 3.2 6.4 0.00 0.10 0.10 66 1006.6
20260509174134 15 260 1.6 4.8 0.00 0.10 0.10 70 1006.7
20260509173630 14 157 3.2 3.2 0.00 0.10 0.10 68 1006.8
20260509173126 15 135 1.6 11.3 0.00 0.10 0.10 66 1006.9
20260509172623 15 181 4.8 11.3 0.00 0.10 0.10 70 1006.9
20260509172119 15 280 6.4 6.4 0.00 0.10 0.10 69 1007.0
20260509171615 15 240 0.0 3.2 0.00 0.10 0.10 74 1006.8
20260509171111 15 153 1.6 4.8 0.00 0.10 0.10 72 1006.9
20260509170607 15 204 0.0 11.3 0.00 0.10 0.10 71 1006.8
20260509170104 14 127 3.2 4.8 0.00 0.10 0.10 73 1006.9
20260509165602 14 245 1.6 6.4 0.00 0.10 0.10 70 1006.6
20260509165058 14 171 3.2 4.8 0.00 0.10 0.10 72 1006.8
20260509164554 14 104 4.8 11.3 0.00 0.10 0.10 74 1006.9
20260509164050 14 166 3.2 4.8 0.00 0.10 0.10 78 1006.7
20260509163548 14 120 3.2 4.8 0.00 0.10 0.10 79 1006.8
20260509163043 14 167 1.6 1.6 0.00 0.10 0.10 76 1006.8
20260509162540 14 225 0.0 0.0 0.00 0.10 0.10 77 1007.0
20260509162036 13 245 0.0 1.6 0.00 0.10 0.10 78 1006.9
20260509161533 13 98 0.0 3.2 0.00 0.10 0.10 81 1007.2
20260509161028 13 166 0.0 1.6 0.00 0.10 0.10 81 1007.3
20260509160524 13 92 0.0 1.6 0.00 0.10 0.10 82 1007.2
20260509160019 13 139 0.0 4.8 0.00 0.10 0.10 83 1007.2
20260509155515 13 149 4.8 9.7 0.00 0.10 0.10 82 1007.3
20260509155012 13 146 6.4 9.7 0.00 0.10 0.10 82 1007.3
20260509154508 13 148 0.0 4.8 0.00 0.10 0.10 85 1007.2
20260509154006 13 185 1.6 3.2 0.00 0.10 0.10 86 1007.5
20260509153503 12 165 1.6 3.2 0.00 0.10 0.10 85 1007.4
20260509152959 12 182 1.6 3.2 0.00 0.10 0.10 85 1007.5
20260509152455 12 182 1.6 1.6 0.00 0.10 0.10 87 1007.5
20260509151952 12 225 1.6 3.2 0.00 0.10 0.10 87 1007.5
20260509151448 12 185 3.2 3.2 0.00 0.10 0.10 89 1007.6
20260509150947 12 240 1.6 4.8 0.00 0.10 0.10 87 1007.5
20260509150443 12 185 3.2 3.2 0.00 0.10 0.10 88 1007.6
20260509145943 12 142 0.0 4.8 0.00 0.10 0.10 89 1007.4
20260509145442 11 171 1.6 4.8 0.00 0.10 0.10 89 1007.7
20260509144938 11 143 1.6 6.4 0.00 0.10 0.10 91 1007.5
20260509144435 11 183 1.6 3.2 0.00 0.10 0.10 91 1007.5
20260509143932 11 197 0.0 3.2 0.00 0.10 0.10 91 1007.6
20260509143429 11 203 1.6 4.8 0.00 0.10 0.10 92 1007.4
20260509142925 11 166 1.6 3.2 0.00 0.10 0.10 93 1007.4
20260509142422 11 125 3.2 4.8 0.00 0.10 0.10 93 1007.2
20260509141918 11 170 1.6 1.6 0.00 0.10 0.10 94 1007.4
20260509141415 11 152 3.2 3.2 0.00 0.10 0.10 94 1007.5
20260509140912 11 180 1.6 3.2 0.00 0.10 0.10 94 1007.4
20260509140408 11 190 0.0 1.6 0.00 0.10 0.10 95 1007.4
20260509135906 10 130 1.6 3.2 0.00 0.10 0.10 94 1007.6
20260509135403 10 152 3.2 3.2 0.00 0.10 0.10 94 1007.7
20260509134901 11 178 3.2 3.2 0.00 0.10 0.10 94 1007.4
20260509134358 11 182 0.0 1.6 0.00 0.10 0.10 94 1007.7
20260509133855 11 173 1.6 3.2 0.00 0.10 0.10 94 1007.8
20260509133351 11 126 0.0 0.0 0.00 0.10 0.10 93 1007.7
20260509132850 11 126 0.0 1.6 0.00 0.10 0.10 94 1007.4
20260509132348 10 126 0.0 0.0 0.00 0.10 0.10 94 1007.8
20260509131845 10 126 0.0 0.0 0.00 0.10 0.10 95 1007.8
20260509131341 10 126 3.2 4.8 0.00 0.10 0.10 93 1007.6
20260509130838 10 140 0.0 0.0 0.00 0.10 0.10 96 1007.7
20260509130334 10 139 0.0 1.6 0.00 0.10 0.10 97 1007.6
20260509125831 10 155 0.0 0.0 0.00 0.10 0.10 98 1007.6
20260509125327 10 170 0.0 3.2 0.00 0.10 0.10 98 1007.6
20260509124823 10 314 0.0 0.0 0.00 0.10 0.10 99 1007.8
20260509124320 9 315 0.0 1.6 0.18 0.10 0.10 99 1007.8
20260509123819 9 315 0.0 1.6 0.18 0.10 0.10 99 1007.8
20260509123316 9 315 1.6 1.6 0.00 0.08 0.08 99 1007.6
20260509122811 9 242 1.6 1.6 0.00 0.08 0.08 99 1007.7
20260509122308 9 239 0.0 1.6 0.13 0.08 0.08 99 1008.0
20260509121805 9 194 0.0 1.6 0.13 0.08 0.08 99 1007.9
20260509121302 9 270 0.0 0.0 0.00 0.05 0.05 99 1007.8
20260509120800 9 270 0.0 0.0 0.00 0.05 0.05 99 1007.9
20260509120258 9 270 1.6 1.6 0.00 0.05 0.05 99 1007.9
20260509115756 9 270 0.0 0.0 0.00 0.05 0.05 99 1007.9
20260509115252 9 270 0.0 3.2 0.00 0.05 0.05 99 1007.9
20260509114750 9 270 0.0 1.6 0.00 0.05 0.05 99 1008.0
20260509114249 9 270 0.0 0.0 0.00 0.05 0.05 98 1008.0
20260509113747 9 208 0.0 1.6 0.00 0.05 0.05 99 1008.0
20260509113244 9 278 0.0 0.0 0.00 0.05 0.05 99 1007.7
20260509112741 9 278 0.0 0.0 0.00 0.05 0.05 99 1007.6
20260509112238 9 278 0.0 0.0 0.00 0.05 0.05 99 1007.7
20260509111735 9 278 1.6 1.6 0.18 0.05 0.05 98 1007.6
20260509111232 9 277 0.0 1.6 0.18 0.05 0.05 98 1007.7
20260509110729 9 118 0.0 1.6 0.00 0.03 0.03 98 1007.7
20260509110226 9 277 0.0 0.0 0.00 0.03 0.03 98 1007.8
20260509105724 9 276 0.0 0.0 0.00 0.03 0.03 98 1007.9
20260509105221 9 274 0.0 0.0 0.00 0.03 0.03 98 1007.7
20260509104718 9 120 0.0 0.0 0.00 0.03 0.03 98 1007.8
20260509104215 9 120 0.0 0.0 0.00 0.03 0.03 97 1007.5
20260509103713 9 120 0.0 0.0 0.00 0.03 0.03 97 1007.8
20260509103210 9 119 0.0 1.6 0.00 0.03 0.03 97 1007.8
20260509102709 9 124 0.0 0.0 0.00 0.03 0.03 96 1007.9
20260509102205 9 123 0.0 1.6 0.00 0.03 0.03 96 1007.9
20260509101701 9 160 0.0 3.2 0.00 0.03 0.03 96 1007.7
20260509101158 9 155 0.0 3.2 0.00 0.03 0.03 95 1008.0
20260509100655 9 43 1.6 1.6 0.00 0.03 0.03 93 1007.6
20260509100152 10 43 1.6 1.6 0.13 0.03 0.03 92 1007.6
20260509095649 10 297 0.0 1.6 0.13 0.03 0.03 90 1007.5
20260509095146 10 313 0.0 3.2 0.00 0.00 0.00 89 1007.8
20260509094642 10 302 1.6 1.6 0.00 0.00 0.00 89 1007.8
20260509094140 10 303 1.6 4.8 0.00 0.00 0.00 87 1007.8
20260509093638 10 317 3.2 9.7 0.00 0.00 0.00 86 1007.9
20260509093135 10 318 4.8 11.3 0.00 0.00 0.00 85 1007.9
20260509092633 10 309 6.4 11.3 0.00 0.00 0.00 84 1008.1
20260509092131 11 302 6.4 12.9 0.00 0.00 0.00 81 1007.7
20260509091629 11 310 9.7 12.9 0.00 0.00 0.00 77 1007.7
20260509091125 11 311 4.8 9.7 0.00 0.00 0.00 76 1007.7
20260509090623 11 312 1.6 11.3 0.00 0.00 0.00 75 1007.5
20260509090120 11 311 11.3 14.5 0.00 0.00 0.00 74 1007.5
20260509085617 12 320 9.7 14.5 0.00 0.00 0.00 73 1007.7
20260509085113 12 272 3.2 14.5 0.00 0.00 0.00 71 1007.6
20260509084610 12 301 8.0 12.9 0.00 0.00 0.00 69 1007.8
20260509084107 12 296 6.4 12.9 0.00 0.00 0.00 66 1007.7
20260509083605 12 324 9.7 22.5 0.00 0.00 0.00 66 1007.7
20260509083101 12 301 8.0 9.7 0.00 0.00 0.00 67 1007.7
20260509082559 12 14 1.6 4.8 0.00 0.00 0.00 67 1007.5
20260509082055 12 280 6.4 9.7 0.00 0.00 0.00 67 1007.5
20260509081552 12 294 9.7 12.9 0.00 0.00 0.00 69 1007.6
20260509081049 11 182 0.0 6.4 0.00 0.00 0.00 74 1007.6
20260509080547 11 267 0.0 6.4 0.00 0.00 0.00 73 1007.6
20260509080045 11 256 3.2 4.8 0.00 0.00 0.00 71 1007.4
20260509075542 -17 0.0 0.0 0.00 0.00 0.00 1007.2
20260509075040 -17 0.0 0.0 0.00 0.00 0.00 1007.3
20260509074537 12 287 1.6 1.6 0.00 0.00 0.00 71 1007.4
20260509074033 12 287 1.6 1.6 0.00 0.00 0.00 71 1007.6
20260509073530 12 240 0.0 1.6 0.00 0.00 0.00 68 1007.6
20260509073026 12 162 1.6 6.4 0.00 0.00 0.00 68 1007.7
20260509072523 12 248 4.8 4.8 0.00 0.00 0.00 66 1007.7
20260509072020 11 217 1.6 6.4 0.00 0.00 0.00 67 1007.5
20260509071517 9 283 1.6 3.2 0.00 0.00 0.00 87 1007.3
20260509071014 8 248 3.2 3.2 0.00 0.00 0.00 85 1007.4
20260509070511 8 283 0.0 0.0 0.00 0.00 0.00 90 1007.2
20260509070008 8 283 0.0 0.0 0.00 0.00 0.00 90 1007.2
20260509065503 8 283 0.0 0.0 0.00 0.00 0.00 89 1007.2
20260509064959 8 283 0.0 0.0 0.00 0.00 0.00 89 1007.2
20260509064457 8 283 0.0 0.0 0.00 0.00 0.00 87 1007.0
20260509063955 8 283 0.0 0.0 0.00 0.00 0.00 89 1007.1
20260509063450 8 283 0.0 0.0 0.00 0.00 0.00 88 1007.0
20260509062948 8 283 0.0 0.0 0.00 0.00 0.00 89 1007.0
20260509062445 8 283 0.0 1.6 0.00 0.00 0.00 90 1006.9
20260509061942 8 283 0.0 0.0 0.00 0.00 0.00 91 1007.2
20260509061439 8 283 0.0 0.0 0.00 0.00 0.00 90 1007.1
20260509060936 8 283 0.0 0.0 0.00 0.00 0.00 90 1007.4
20260509060434 8 283 0.0 0.0 0.00 0.00 0.00 89 1007.3
20260509055929 8 283 0.0 0.0 0.00 0.00 0.00 90 1007.2
20260509055424 8 283 0.0 1.6 0.00 0.00 0.00 88 1007.3
20260509054921 8 283 0.0 1.6 0.00 0.00 0.00 87 1007.6
20260509054418 8 283 0.0 0.0 0.00 0.00 0.00 87 1007.6
20260509053917 8 283 1.6 3.2 0.00 0.00 0.00 88 1007.6
20260509053414 8 283 1.6 1.6 0.00 0.00 0.00 89 1007.6
20260509052906 8 283 0.0 1.6 0.00 0.00 0.00 88 1007.7
20260509052403 9 283 0.0 0.0 0.00 0.00 0.00 87 1007.8
20260509051901 8 283 1.6 1.6 0.00 0.00 0.00 88 1007.8
20260509051359 9 283 0.0 0.0 0.00 0.00 0.00 90 1007.7
20260509050855 9 283 0.0 0.0 0.00 0.00 0.00 90 1008.0
20260509050352 9 283 0.0 1.6 0.00 0.00 0.00 88 1007.8
20260509045848 9 283 1.6 1.6 0.00 0.00 0.00 89 1007.9